Weather History for Lander, WY

Change the Weather History Date:

Thursday, October 3, 2013

  Actual Average Record
Temperature  
Mean Temperature 36 °F 51 °F  
Max Temperature 41 °F 64 °F 86 °F (2010)
Min Temperature 30 °F 37 °F 10 °F (1891)
Degree Days  
Heating Degree Days 29 14  
Month to date heating degree days 56 42  
Since 1 July heating degree days 248 301  
Cooling Degree Days 0 0  
Month to date cooling degree days 0 0  
Year to date cooling degree days 743 472  
Moisture  
Dew Point 35 °F    
Average Humidity 93    
Maximum Humidity 100    
Minimum Humidity 86    
Precipitation  
Precipitation 0.58 in 0.05 in 1.32 in (1908)
Month to date precipitation 0.91 0.15  
Year to date precipitation 12.55 10.08  
Snow  
Snow 1.00 in 0.20 in - ()
Month to date snowfall 1.0 0.7  
Since 1 July snowfall 5.1 3.4  
Since 1 September snowfall 5.1 3.4  
Snow Depth 0.00 in    
Sea Level Pressure  
Sea Level Pressure 29.91 in    
Wind  
Wind Speed 6 mph (North)    
Max Wind Speed 22 mph    
Max Gust Speed 26 mph    
Visibility 6 miles    
Events Fog , Rain , Snow    
T = Trace of Precipitation, MM = Missing Value Source: NWS Daily Summary

Daily Weather History Graph

Daily Weather History Graph

Search for Another Location

Airport:

Trip Planner

Search our weather history database for the weather conditions in past years. The results will help you decide how hot, cold, wet, or windy it might be!

Date:

Astronomy

Oct. 03, 2013 Rise Set
Actual Time 7:14 AM MDT 6:52 PM MDT
Civil Twilight 6:46 AM MDT 7:20 PM MDT
Nautical Twilight 6:13 AM MDT 7:53 PM MDT
Astronomical Twilight 5:40 AM MDT 8:26 PM MDT
Moon 5:50 AM MDT (10/3) 6:02 PM MDT (10/3)
Length of Visible Light 12h 33m
Length of Day
11h 37m
Waning Crescent, 2% of the Moon is Illuminated
Oct 3
Waning Crescent
Oct 4
New
Oct 11
First Quarter
Oct 18
Full
Oct 26
Last Quarter

Hourly Weather History & Observations

Time (MDT) Temp. Windchill Dew Point Humidity Pressure Visibility Wind Dir Wind Speed Gust Speed Precip Events Conditions
12:49 AM 39.2 °F 34.2 °F 37.4 °F 93% 29.96 in 6.0 mi ESE 6.9 mph - 0.04 in Rain Light Rain
12:53 AM 39.9 °F 33.9 °F 39.0 °F 97% 29.89 in 6.0 mi SE 9.2 mph - 0.05 in Rain Light Rain
1:07 AM 39.2 °F 31.2 °F 39.2 °F 100% 29.91 in 5.0 mi SE 13.8 mph - 0.03 in Rain Light Rain
1:53 AM 39.0 °F - 36.0 °F 89% 29.85 in 10.0 mi Calm Calm - 0.04 in   Overcast
2:53 AM 37.9 °F - 36.0 °F 93% 29.83 in 10.0 mi Calm Calm - N/A   Mostly Cloudy
3:17 AM 37.4 °F 34.9 °F 35.6 °F 93% 29.88 in 10.0 mi SW 3.5 mph - N/A   Scattered Clouds
3:53 AM 37.0 °F 31.6 °F 37.0 °F 100% 29.82 in 10.0 mi WNW 6.9 mph - N/A   Clear
4:53 AM 37.9 °F - 36.0 °F 93% 29.81 in 10.0 mi Calm Calm - N/A   Clear
5:53 AM 37.0 °F 34.5 °F 36.0 °F 96% 29.79 in 10.0 mi SSW 3.5 mph - N/A   Clear
6:53 AM 37.0 °F 34.5 °F 36.0 °F 96% 29.78 in 10.0 mi NE 3.5 mph - N/A   Partly Cloudy
7:47 AM 37.4 °F 32.8 °F 37.4 °F 100% 29.82 in 9.0 mi WNW 5.8 mph - N/A   Mostly Cloudy
7:53 AM 37.0 °F 33.3 °F 37.0 °F 100% 29.79 in 10.0 mi WNW 4.6 mph - N/A   Mostly Cloudy
8:38 AM 39.2 °F - 37.4 °F 93% 29.83 in 10.0 mi Calm Calm - N/A   Overcast
8:53 AM 39.9 °F 37.8 °F 37.9 °F 93% 29.80 in 10.0 mi NW 3.5 mph - N/A   Overcast
9:32 AM 39.2 °F 37.0 °F 37.4 °F 93% 29.84 in 10.0 mi West 3.5 mph - 0.00 in Rain Light Rain
9:53 AM 39.9 °F 36.7 °F 37.9 °F 93% 29.81 in 6.0 mi West 4.6 mph - 0.00 in Rain Light Rain
10:19 AM 39.2 °F 33.6 °F 39.2 °F 100% 29.83 in 8.0 mi NW 8.1 mph - 0.01 in Rain Light Rain
10:32 AM 39.2 °F 35.0 °F 37.4 °F 93% 29.84 in 6.0 mi WNW 5.8 mph - 0.01 in Rain Light Rain
10:53 AM 39.9 °F 35.8 °F 37.9 °F 93% 29.83 in 7.0 mi WNW 5.8 mph - 0.02 in Rain Light Rain
11:36 AM 39.2 °F 33.6 °F 37.4 °F 93% 29.86 in 7.0 mi WNW 8.1 mph - 0.03 in Rain Light Rain
11:53 AM 39.9 °F 35.1 °F 37.0 °F 89% 29.85 in 5.0 mi WNW 6.9 mph - 0.04 in Rain Light Rain
12:53 PM 39.9 °F 35.1 °F 37.9 °F 93% 29.84 in 10.0 mi NW 6.9 mph - 0.02 in   Overcast
1:05 PM 41.0 °F 37.1 °F 37.4 °F 87% 29.85 in 10.0 mi NNW 5.8 mph - N/A   Overcast
1:17 PM 41.0 °F 38.0 °F 39.2 °F 93% 29.87 in 10.0 mi WNW 4.6 mph - N/A   Overcast
1:39 PM 41.0 °F 37.1 °F 37.4 °F 87% 29.87 in 10.0 mi NNW 5.8 mph - N/A   Overcast
1:53 PM 41.0 °F 35.2 °F 37.9 °F 89% 29.87 in 10.0 mi North 9.2 mph - N/A   Overcast
2:04 PM 41.0 °F 34.7 °F 37.4 °F 87% 29.89 in 10.0 mi North 10.4 mph - N/A   Overcast
2:13 PM 39.2 °F 31.6 °F 37.4 °F 93% 29.89 in 10.0 mi North 12.7 mph - 0.00 in Rain Light Rain
2:53 PM 37.9 °F 30.5 °F 36.0 °F 93% 29.90 in 2.5 mi North 11.5 mph 21.9 mph 0.03 in Rain Rain
3:01 PM 37.4 °F 28.9 °F 37.4 °F 100% 29.90 in 4.0 mi NNE 13.8 mph - 0.01 in Rain Rain
3:53 PM 37.0 °F 28.9 °F 36.0 °F 96% 29.93 in 10.0 mi NNE 12.7 mph - 0.04 in Rain Light Rain
4:18 PM 35.6 °F 29.2 °F 35.6 °F 100% 29.92 in 8.0 mi NE 8.1 mph 17.3 mph 0.00 in Rain Light Rain
4:34 PM 35.6 °F - 35.6 °F 100% 29.94 in 9.0 mi Calm Calm - 0.00 in Rain Light Rain
4:53 PM 35.1 °F 30.1 °F 34.0 °F 96% 29.98 in 6.0 mi East 5.8 mph - 0.01 in   Overcast
5:16 PM 33.8 °F 27.7 °F 33.8 °F 100% 29.97 in 2.0 mi East 6.9 mph - 0.01 in Snow Light Snow
5:28 PM 33.8 °F 29.6 °F 33.8 °F 100% 29.97 in 1.5 mi ESE 4.6 mph - 0.02 in Snow Light Snow
5:53 PM 33.1 °F 27.7 °F 33.1 °F 100% 29.99 in 1.0 mi NE 5.8 mph - 0.04 in Snow Light Snow
6:02 PM 33.8 °F 27.7 °F 32.0 °F 93% 29.98 in 0.8 mi NNE 6.9 mph - 0.01 in Snow Light Snow
6:17 PM 32.0 °F 23.6 °F 32.0 °F 100% 29.98 in 1.0 mi North 10.4 mph - 0.02 in Snow Light Snow
6:53 PM 32.0 °F 27.5 °F 32.0 °F 100% 30.04 in 2.0 mi North 4.6 mph - 0.02 in Snow Light Snow
7:10 PM 32.0 °F 26.4 °F 32.0 °F 100% 30.01 in 3.0 mi North 5.8 mph - 0.00 in Snow Light Snow
7:26 PM 32.0 °F 27.5 °F 32.0 °F 100% 30.02 in 2.5 mi NNE 4.6 mph - 0.01 in Snow Light Snow
7:48 PM 32.0 °F 27.5 °F 32.0 °F 100% 30.03 in 3.0 mi NNE 4.6 mph - 0.01 in Snow Light Snow
7:53 PM 32.0 °F 27.5 °F 32.0 °F 100% 30.06 in 2.5 mi North 4.6 mph - 0.01 in Snow Light Snow
8:13 PM 32.0 °F 26.4 °F 32.0 °F 100% 30.02 in 1.5 mi NE 5.8 mph - 0.00 in Snow Light Snow
8:53 PM 32.0 °F 26.4 °F 30.9 °F 96% 30.06 in 1.8 mi ENE 5.8 mph - 0.02 in Snow Light Snow
9:37 PM 30.2 °F 25.4 °F 30.2 °F 100% 30.05 in 0.8 mi ESE 4.6 mph - 0.02 in Snow Light Snow
10:30 PM 30.2 °F - 30.2 °F 100% 30.06 in 0.8 mi Calm Calm - 0.05 in Snow Light Snow
10:53 PM 30.9 °F 27.5 °F 30.9 °F 100% 30.09 in 0.8 mi Variable 3.5 mph - 0.08 in Snow Light Snow
11:53 PM 30.0 °F 25.2 °F 30.0 °F 100% 30.09 in 0.5 mi East 4.6 mph - 0.09 in Fog , Snow Snow